"2009-06-16 00:00:00",979505,10.05,354,7.128,1.468,17.53,106.2204,15.2,16.51,48.55,0,110.5,13.27,16.00,316.0
"2009-06-16 00:00:30",979506,11.23,357.3,6.637,1.09,18.39,106.2204,15.2,16.48,48.63,0,110.5,13.27,16.00,319.3
"2009-06-16 00:01:00",979507,9.7,348,6.299,1.103,15.16,106.2063,15.16,16.23,48.53,0,110.5,13.27,15.97,310.0
"2009-06-16 00:01:30",979508,8.82,340.3,1.894,0.118,14.29,106.188,15.11,16.2,49.26,0,110.5,13.31,15.92,302.3
"2009-06-16 00:02:00",979509,8.94,337.6,0.933,0.103,14.78,106.1866,15.11,16.18,49.56,0,110.5,13.31,15.92,299.6
"2009-06-16 00:02:30",979510,9.63,339.8,0.862,0.387,15.74,106.1818,15.1,16.16,49.33,0,110.5,13.31,15.90,301.8
"2009-06-16 00:03:00",979511,11.57,352.3,7.842,1.613,18.03,106.1548,15.03,16.29,49.07,0,110.5,13.27,15.83,314.3
"2009-06-16 00:03:30",979512,12.67,356.3,7.615,1.58,10.92,106.1517,15.02,16.36,46.46,0,110.5,13.27,15.83,318.3
"2009-06-16 00:04:00",979513,12.86,358.1,5.847,1.449,16.26,106.1266,14.96,16.39,44.44,0,110.5,13.27,15.76,320.1
"2009-06-16 00:04:30",979514,12.26,337.4,6.054,1.254,7.8,106.1049,14.9,16.39,44.75,0,110.5,13.27,15.71,299.4
"2009-06-16 00:05:00",979515,13.81,334.5,4.714,0.636,-32.96,106.0796,14.84,16.3,44.38,0,110.5,13.27,15.64,296.5
"2009-06-16 00:05:30",979516,12.36,338.8,5.566,1.14,-54.34,106.0446,14.75,16.2,44.85,0,110.5,13.27,15.55,300.8
"2009-06-16 00:06:00",979517,11.46,338,6.474,1.495,-44.11,106.008,14.65,16.13,45.79,0,110.5,13.27,15.46,300.0
"2009-06-16 00:06:30",979518,8.02,357.2,15.79,2.326,-26.67,105.9697,14.56,15.99,46.51,0,110.5,13.27,15.36,319.2
"2009-06-16 00:07:00",979519,6.556,24.97,7.352,2.532,-32.69,105.9336,14.46,16.01,47.85,0,110.6,13.27,15.27,347.0
"2009-06-16 00:07:30",979520,5.761,19.65,7.833,1.384,-14.92,105.9027,14.38,15.99,48.48,0,110.5,13.27,15.19,341.6
"2009-06-16 00:08:00",979521,5.707,4.882,12.4,1.983,-2.954,105.8733,14.31,15.8,48.02,0,110.5,13.27,15.11,326.9
"2009-06-16 00:08:30",979522,8.95,11.36,8.07,1.21,1.005,105.843,14.23,15.8,47.12,0,110.5,13.27,15.03,333.4
"2009-06-16 00:09:00",979523,7.642,31.78,8.28,2.027,-4.556,105.8071,14.14,15.69,48.38,0,110.5,13.27,14.94,353.8
"2009-06-16 00:09:30",979524,8.27,34.69,8.88,0.926,5.24,105.7777,14.06,15.7,49.9,0,110.5,13.27,14.86,356.7
"2009-06-16 00:10:00",979525,9.56,50.49,3.905,1.164,19.3,105.7428,13.97,15.63,49.95,0,110.5,13.27,14.77,12.5
"2009-06-16 00:10:30",979526,10.23,51.1,3.554,0.917,18.56,105.6997,13.86,15.54,51.45,0,110.5,13.27,14.66,13.1
"2009-06-16 00:11:00",979527,11.1,48.36,5.931,1.083,18.69,105.6628,13.77,15.44,51.24,0,110.5,13.27,14.57,10.4
"2009-06-16 00:11:30",979528,8.45,29.74,10.28,0.991,18.53,105.6239,13.67,15.35,51.79,0,110.5,13.27,14.47,351.7
"2009-06-16 00:12:00",979529,7.594,46.8,7.588,0.809,19.74,105.5884,13.58,15.25,51.1,0,110.5,13.27,14.38,8.8
"2009-06-16 00:12:30",979530,8.02,32.41,11.16,0.859,18.13,105.556,13.5,15.15,50.53,0,110.5,13.27,14.29,354.4
"2009-06-16 00:13:00",979531,8.08,30.45,6.797,0.837,17.91,105.5208,13.41,15.03,51.39,0,110.5,13.27,14.20,352.5
"2009-06-16 00:13:30",979532,6.164,35.91,5.543,1.162,13.55,105.498,13.35,14.68,51.46,0,110.5,13.27,14.15,357.9
"2009-06-16 00:14:00",979533,4.406,35.28,4.653,0.23,13.03,105.4763,13.29,14.62,51.96,0,110.4,13.3,14.09,357.3
"2009-06-16 00:14:30",979534,4.532,38.43,1.826,0.392,13.04,105.4484,13.22,14.54,51.49,0,110.4,13.31,14.02,0.4
"2009-06-16 00:15:00",979535,4.761,39.92,3.051,0.287,13.21,105.4416,13.2,14.48,51.5,0,110.4,13.31,14.00,1.9
"2009-06-16 00:15:30",979536,3.615,37.85,4.711,0.423,13.7,105.4129,13.13,14.44,52.55,0,110.4,13.31,13.93,359.9
"2009-06-16 00:16:00",979537,3.739,41.2,4.007,0.3,13.97,105.4098,13.12,14.38,52.66,0,110.4,13.32,13.92,3.2
"2009-06-16 00:16:30",979538,3.696,43.68,3.39,0.354,14.3,105.3861,13.06,14.34,51.97,0,110.4,13.32,13.86,5.7
"2009-06-16 00:17:00",979539,2.597,55.54,11.39,0.579,14.33,105.3821,13.05,14.29,51.25,0,110.4,13.33,13.85,17.5
"2009-06-16 00:17:30",979540,2.016,68.14,6.916,0.21,14.3,105.3824,13.05,14.26,51.1,0,110.4,13.33,13.85,30.1
"2009-06-16 00:18:00",979541,2.512,61.77,4.778,0.284,14.23,105.3859,13.06,14.24,51.22,0,110.4,13.33,13.86,23.8
"2009-06-16 00:18:30",979542,2.998,64.59,10.51,0.446,14.37,105.3818,13.05,14.21,51.34,0,110.4,13.33,13.85,26.6
"2009-06-16 00:19:00",979543,3.007,65.13,10.41,0.308,14.4,105.3724,13.03,14.18,51.19,0,110.4,13.33,13.82,27.1
"2009-06-16 00:19:30",979544,3.507,55.51,2.852,0.348,14.44,105.3692,13.02,14.15,51.16,0,110.4,13.33,13.81,17.5
"2009-06-16 00:20:00",979545,3.849,70.16,9.74,0.327,14.5,105.3736,13.03,14.15,50.72,0,110.4,13.33,13.83,32.2
"2009-06-16 00:20:30",979546,4.353,68.96,2.574,0.452,14.35,105.3875,13.06,14.13,50.65,0,110.4,13.33,13.86,31.0
"2009-06-16 00:21:00",979547,4.162,69.48,6.144,0.369,14.1,105.3932,13.08,14.13,50.71,0,110.4,13.33,13.88,31.5
"2009-06-16 00:21:30",979548,4.499,73.08,6.451,0.387,14.05,105.4017,13.1,14.13,50.67,0,110.4,13.33,13.90,35.1
"2009-06-16 00:22:00",979549,4.653,78.22,8.65,0.475,13.97,105.4014,13.1,14.14,51.84,0,110.4,13.33,13.90,40.2
"2009-06-16 00:22:30",979550,4.701,75.92,2.863,0.206,13.74,105.4198,13.15,14.14,51.79,0,110.4,13.34,13.94,37.9
"2009-06-16 00:23:00",979551,5.194,75.6,3.829,0.28,13.61,105.4293,13.17,14.16,52.08,0,110.4,13.34,13.97,37.6
"2009-06-16 00:23:30",979552,4.878,77.61,5.157,0.427,13.69,105.4412,13.2,14.2,51.86,0,110.4,13.34,14.00,39.6
"2009-06-16 00:24:00",979553,4.602,86.9,4.518,0.377,13.62,105.4557,13.24,14.23,51.46,0,110.4,13.33,14.04,48.9
"2009-06-16 00:24:30",979554,5.013,87.4,3.087,0.297,13.42,105.4744,13.29,14.26,51.3,0,110.4,13.33,14.09,49.4
"2009-06-16 00:25:00",979555,5.442,81.2,4.044,0.778,13.65,105.485,13.31,14.28,50.7,0,110.4,13.33,14.11,43.2
"2009-06-16 00:25:30",979556,5.779,89,4.883,0.383,13.61,105.5118,13.38,14.32,50.61,0,110.4,13.33,14.18,51.0
"2009-06-16 00:26:00",979557,5.533,82.7,6.089,0.713,13.45,105.5357,13.44,14.37,51.09,0,110.4,13.33,14.24,44.7
"2009-06-16 00:26:30",979558,6.578,81.9,2.767,0.288,13.4,105.5569,13.5,14.4,50.97,0,110.4,13.33,14.30,43.9
"2009-06-16 00:27:00",979559,6.905,87.8,5.557,0.426,13.35,105.58,13.56,14.44,50.69,0,110.4,13.33,14.36,49.8
"2009-06-16 00:27:30",979560,6.227,99.7,2.711,0.164,13.19,105.598,13.6,14.47,50.92,0,110.4,13.33,14.40,61.7
"2009-06-16 00:28:00",979561,6.022,94.2,3.811,0.607,13.36,105.6135,13.64,14.53,50.94,0,110.4,13.33,14.44,56.2
"2009-06-16 00:28:30",979562,6.752,86.5,2.355,0.269,13.83,105.6158,13.65,14.55,51.58,0,110.4,13.33,14.45,48.5
"2009-06-16 00:29:00",979563,6.737,91.4,6.272,0.395,13.75,105.6369,13.7,14.57,50.36,0,110.4,13.32,14.50,53.4
"2009-06-16 00:29:30",979564,6.693,94.4,4.222,0.306,13.83,105.6476,13.73,14.61,50.06,0,110.4,13.32,14.53,56.4
"2009-06-16 00:30:00",979565,6.43,86.5,2.982,0.388,13.83,105.6476,13.73,14.63,50.64,0,110.4,13.32,14.53,48.5
"2009-06-16 00:30:30",979566,6.142,92.6,3.506,0.247,13.86,105.6555,13.75,14.66,50.28,0,110.4,13.32,14.55,54.6
"2009-06-16 00:31:00",979567,6.476,90.4,5.057,0.236,13.81,105.6789,13.81,14.68,50.6,0,110.4,13.32,14.61,52.4
"2009-06-16 00:31:30",979568,6.354,98.8,3.141,0.388,13.89,105.6814,13.82,14.69,49.72,0,110.4,13.32,14.62,60.8
"2009-06-16 00:32:00",979569,5.714,114.5,5.72,0.482,14.1,105.6814,13.82,14.73,48.71,0,110.5,13.32,14.62,76.5
"2009-06-16 00:32:30",979570,5.786,110.3,4.12,0.373,14.12,105.6972,13.86,14.73,48.11,0,110.4,13.33,14.66,72.3
"2009-06-16 00:33:00",979571,5.82,108.2,3.167,0.233,14.09,105.7152,13.9,14.76,47.9,0,110.5,13.33,14.70,70.2
"2009-06-16 00:33:30",979572,5.791,103.6,3.585,0.231,14.21,105.7152,13.9,14.78,47.78,0,110.5,13.33,14.70,65.6
"2009-06-16 00:34:00",979573,5.769,96.3,6.316,0.266,14.09,105.7403,13.97,14.81,47.56,0,110.5,13.33,14.77,58.3
"2009-06-16 00:34:30",979574,6.315,91.1,6.25,0.382,13.84,105.7425,13.97,14.85,47.67,0,110.5,13.33,14.77,53.1
"2009-06-16 00:35:00",979575,7.047,75.74,5.394,0.543,13.4,105.7478,13.99,14.87,50.79,0,110.5,13.33,14.79,37.7
"2009-06-16 00:35:30",979576,7.083,75.73,1.919,0.366,13.57,105.7681,14.04,14.91,51.86,0,110.5,13.33,14.84,37.7
"2009-06-16 00:36:00",979577,7.325,73.35,3.498,0.422,13.71,105.7644,14.03,14.94,51.66,0,110.5,13.33,14.83,35.3
"2009-06-16 00:36:30",979578,7.276,74.37,2.387,0.303,13.93,105.7644,14.03,14.95,50.56,0,110.5,13.33,14.83,36.4
"2009-06-16 00:37:00",979579,7.015,80.7,4.761,0.476,13.86,105.7611,14.02,14.97,50.33,0,110.5,13.32,14.82,42.7
"2009-06-16 00:37:30",979580,6.74,78.43,5.537,0.322,13.69,105.7616,14.02,14.99,51.34,0,110.5,13.32,14.82,40.4
"2009-06-16 00:38:00",979581,6.558,78.99,3.231,0.291,13.95,105.7696,14.04,15.01,51.08,0,110.5,13.32,14.84,41.0
"2009-06-16 00:38:30",979582,6.631,73.24,4.476,0.376,13.83,105.7783,14.06,15.02,50.64,0,110.5,13.32,14.87,35.2
"2009-06-16 00:39:00",979583,6.514,60.69,3.538,0.339,13.49,105.7788,14.07,15.03,53.34,0,110.5,13.32,14.87,22.7
"2009-06-16 00:39:30",979584,6.433,62.6,3.065,0.439,13.53,105.7659,14.03,15.04,53.83,0,110.5,13.32,14.83,24.6
"2009-06-16 00:40:00",979585,7.066,71.76,7.058,0.77,14.59,105.7532,14,15.22,54.18,0,110.5,13.29,14.80,33.8
"2009-06-16 00:40:30",979586,7.109,80.6,6.792,1.258,15.45,105.7486,13.99,15.11,51.9,0,110.5,13.28,14.79,42.6
"2009-06-16 00:41:00",979587,7.383,83.7,6.727,1.279,15.93,105.7492,13.99,15.12,50.16,0,110.5,13.28,14.79,45.7
"2009-06-16 00:41:30",979588,6.246,77.1,1.93,0.242,13.97,105.7477,13.99,15.03,49.44,0,110.5,13.32,14.79,39.1
"2009-06-16 00:42:00",979589,5.88,76.61,1.36,0.203,13.83,105.748,13.99,15.03,49.93,0,110.5,13.32,14.79,38.6
"2009-06-16 00:42:30",979590,5.829,80.8,1.457,0.123,14.14,105.7477,13.99,15.04,49.82,0,110.5,13.32,14.79,42.8
"2009-06-16 00:43:00",979591,6.071,80.2,5.113,1.054,14.76,105.7474,13.99,15.04,49.33,0,110.5,13.28,14.79,42.2
"2009-06-16 00:43:30",979592,6.894,85.4,6.313,1.452,16.39,105.7474,13.99,15.18,49.44,0,110.5,13.28,14.79,47.4
"2009-06-16 00:44:00",979593,7.197,80.6,6.515,1.298,16.46,105.7474,13.99,15.28,49.98,0,110.5,13.28,14.79,42.6
"2009-06-16 00:44:30",979594,6.758,81.4,9.5,1.329,15.65,105.7446,13.98,15.22,50.16,0,110.5,13.27,14.78,43.4
"2009-06-16 00:45:00",979595,6.315,77.68,2.876,0.514,12.63,105.7398,13.97,15.02,49.83,0,110.5,13.31,14.77,39.7
"2009-06-16 00:45:30",979596,6.783,78.22,1.469,0.187,12.54,105.723,13.92,15,49.74,0,110.5,13.31,14.72,40.2
"2009-06-16 00:46:00",979597,6.563,81,2.261,0.123,12.66,105.7142,13.9,15,49.84,0,110.5,13.31,14.70,43.0
"2009-06-16 00:46:30",979598,6.461,87.4,2.158,0.197,12.86,105.7139,13.9,14.99,50.05,0,110.5,13.31,14.70,49.4
"2009-06-16 00:47:00",979599,6.475,87.3,2.952,0.1,13,105.7142,13.9,14.99,50.66,0,110.5,13.31,14.70,49.3
"2009-06-16 00:47:30",979600,5.867,82,1.772,0.148,13.03,105.7142,13.9,14.96,51.52,0,110.5,13.31,14.70,44.0
"2009-06-16 00:48:00",979601,5.962,84.9,1.03,0.23,13.44,105.7092,13.89,14.96,51.71,0,110.5,13.31,14.69,46.9
"2009-06-16 00:48:30",979602,6.609,78.85,3.357,0.209,13.48,105.7035,13.87,14.95,51.76,0,110.5,13.31,14.67,40.8
"2009-06-16 00:49:00",979603,6.624,80.4,2.203,0.179,13.73,105.6878,13.83,14.94,52.17,0,110.5,13.32,14.63,42.4
"2009-06-16 00:49:30",979604,6.244,82,1.479,0.158,13.79,105.681,13.82,14.93,52.54,0,110.5,13.32,14.62,44.0
"2009-06-16 00:50:00",979605,6.151,84.8,2.554,0.198,13.84,105.6816,13.82,14.93,52.77,0,110.5,13.32,14.62,46.8
"2009-06-16 00:50:30",979606,5.678,82.1,1.109,0.112,13.65,105.6798,13.81,14.91,53.12,0,110.5,13.32,14.61,44.1
"2009-06-16 00:51:00",979607,5.542,78.12,1.95,0.297,13.54,105.6795,13.81,14.92,53.6,0,110.5,13.32,14.61,40.1
"2009-06-16 00:51:30",979608,5.523,81.1,3.869,0.946,13.78,105.6795,13.81,14.91,53.85,0,110.5,13.28,14.61,43.1
"2009-06-16 00:52:00",979609,6.902,90.6,11.34,1.564,16.07,105.6801,13.81,15.05,54.11,0,110.5,13.28,14.61,52.6
"2009-06-16 00:52:30",979610,5.635,91.9,2.497,0.369,13.8,105.6798,13.81,14.88,53.48,0,110.5,13.32,14.61,53.9
"2009-06-16 00:53:00",979611,5.08,92.7,3.08,0.302,13.37,105.6795,13.81,14.88,53.75,0,110.5,13.32,14.61,54.7
"2009-06-16 00:53:30",979612,5.322,93.5,2.083,0.181,13.33,105.6744,13.8,14.87,54.11,0,110.5,13.32,14.60,55.5
"2009-06-16 00:54:00",979613,5.405,96,1.419,0.311,13.37,105.6576,13.76,14.88,54.11,0,110.5,13.32,14.56,58.0
"2009-06-16 00:54:30",979614,6.1,93.3,1.402,0.233,13.37,105.6466,13.73,14.85,53.88,0,110.5,13.32,14.53,55.3
"2009-06-16 00:55:00",979615,6.99,97.5,5.787,1.344,15.23,105.6457,13.73,14.88,54.41,0,110.5,13.28,14.53,59.5
"2009-06-16 00:55:30",979616,6.658,91,4.788,0.95,14.33,105.6457,13.73,15.03,54.32,0,110.5,13.28,14.53,53.0
"2009-06-16 00:56:00",979617,7.115,95.3,4.756,1.462,14.64,105.6457,13.73,14.82,53.76,0,110.5,13.28,14.53,57.3
"2009-06-16 00:56:30",979618,5.354,85.1,3.103,0.15,12.97,105.6409,13.71,14.8,53.11,0,110.5,13.32,14.51,47.1
"2009-06-16 00:57:00",979619,5.253,90.4,2.819,0.19,13.03,105.6341,13.7,14.8,53,0,110.5,13.32,14.50,52.4
"2009-06-16 00:57:30",979620,4.787,92.6,1.592,0.148,13.08,105.6243,13.67,14.78,53.02,0,110.5,13.32,14.47,54.6
"2009-06-16 00:58:00",979621,4.765,94.4,1.674,0.114,13.31,105.6201,13.66,14.79,52.8,0,110.5,13.32,14.46,56.4
"2009-06-16 00:58:30",979622,4.785,93.4,2.862,0.164,13.29,105.6164,13.65,14.78,52.74,0,110.5,13.32,14.45,55.4
"2009-06-16 00:59:00",979623,4.975,90.5,2.675,0.215,13.34,105.6164,13.65,14.76,53.02,0,110.5,13.32,14.45,52.5
"2009-06-16 00:59:30",979624,5.412,90.9,1.664,0.161,13.5,105.6156,13.65,14.75,53.44,0,110.5,13.32,14.45,52.9
"2009-06-16 01:00:00",979625,5.482,89.5,1.872,0.127,13.7,105.6161,13.65,14.76,53.17,0,110.5,13.32,14.45,51.5
"2009-06-16 01:00:30",979626,5.577,83.5,2.237,0.101,13.76,105.6187,13.66,14.75,53.32,0,110.5,13.32,14.46,45.5
"2009-06-16 01:01:00",979627,5.521,80.3,1.436,0.121,13.88,105.6257,13.67,14.75,53.34,0,110.5,13.32,14.47,42.3
"2009-06-16 01:01:30",979628,5.595,81.7,4.405,0.555,14.58,105.6282,13.68,14.84,53.5,0,110.5,13.28,14.48,43.7
"2009-06-16 01:02:00",979629,6.16,82.9,7.229,1.397,15.5,105.6344,13.7,14.81,53.65,0,110.5,13.28,14.50,44.9
"2009-06-16 01:02:30",979630,6.205,82.1,6.971,1.371,15.87,105.6384,13.71,14.86,53.71,0,110.5,13.28,14.51,44.1
"2009-06-16 01:03:00",979631,4.752,73.63,1.363,0.131,13.65,105.6429,13.72,14.75,53.61,0,110.5,13.31,14.52,35.6
"2009-06-16 01:03:30",979632,4.342,71.36,1.197,0.161,13.41,105.6454,13.72,14.76,53.7,0,110.5,13.31,14.52,33.4
"2009-06-16 01:04:00",979633,4.401,67.96,1.088,0.158,13.39,105.6457,13.73,14.75,53.79,0,110.5,13.31,14.53,30.0
"2009-06-16 01:04:30",979634,4.689,71.32,2.938,0.165,13.2,105.6457,13.73,14.77,54.3,0,110.5,13.31,14.53,33.3
"2009-06-16 01:05:00",979635,4.956,67.04,2.713,0.24,13.27,105.6457,13.73,14.77,55.42,0,110.5,13.31,14.53,29.0
"2009-06-16 01:05:30",979636,5.849,68.87,6.579,1.289,15.23,105.6457,13.73,14.94,55.96,0,110.5,13.28,14.53,30.9
"2009-06-16 01:06:00",979637,5.123,72.94,6.761,1.457,14.03,105.6457,13.73,14.78,56.55,0,110.5,13.28,14.53,34.9
"2009-06-16 01:06:30",979638,4.589,81.3,5.337,1.321,14.01,105.6457,13.73,14.95,57.59,0,110.5,13.28,14.53,43.3
"2009-06-16 01:07:00",979639,5.284,78.43,5.134,1.282,13.31,105.6457,13.73,14.79,58,0,110.5,13.28,14.53,40.4
"2009-06-16 01:07:30",979640,4.365,66.7,3.401,0.207,12.08,105.6457,13.73,14.79,57.6,0,110.5,13.32,14.53,28.7
"2009-06-16 01:08:00",979641,4.67,65.3,1.549,0.359,12.16,105.6457,13.73,14.78,57.59,0,110.5,13.32,14.53,27.3
"2009-06-16 01:08:30",979642,4.106,68.5,4.587,1.023,13.07,105.6457,13.73,14.81,58.02,0,110.5,13.28,14.53,30.5
"2009-06-16 01:09:00",979643,4.213,85.3,8.59,1.36,14.9,105.6457,13.73,14.9,58.38,0,110.5,13.28,14.53,47.3
"2009-06-16 01:09:30",979644,3.383,80.9,7.641,0.755,12.74,105.6457,13.73,14.77,58.75,0,110.5,13.32,14.53,42.9
"2009-06-16 01:10:00",979645,4.12,72.63,3.41,0.305,12.75,105.6457,13.73,14.8,57.09,0,110.5,13.32,14.53,34.6
"2009-06-16 01:10:30",979646,4.057,68.32,3.089,0.17,12.67,105.6457,13.73,14.77,56.1,0,110.5,13.32,14.53,30.3
"2009-06-16 01:11:00",979647,4.445,72.11,2.953,0.35,12.84,105.6449,13.72,14.77,57.36,0,110.5,13.32,14.52,34.1
"2009-06-16 01:11:30",979648,4.417,69.68,1.654,0.174,12.92,105.6406,13.71,14.76,57.74,0,110.5,13.32,14.51,31.7
"2009-06-16 01:12:00",979649,4.199,73.69,1.319,0.22,13.04,105.6313,13.69,14.76,57.24,0,110.5,13.32,14.49,35.7
"2009-06-16 01:12:30",979650,3.61,77.14,2.814,0.208,13.2,105.6246,13.67,14.76,56.63,0,110.5,13.32,14.47,39.1
"2009-06-16 01:13:00",979651,3.664,75.92,1.619,0.371,13.34,105.615,13.65,14.83,56.71,0,110.5,13.32,14.45,37.9
"2009-06-16 01:13:30",979652,4.84,87.7,7.824,1.494,15.8,105.6119,13.64,14.85,57.15,0,110.5,13.28,14.44,49.7
"2009-06-16 01:14:00",979653,3.327,85.6,6.72,0.282,12.97,105.6119,13.64,14.73,56.78,0,110.5,13.32,14.44,47.6
"2009-06-16 01:14:30",979654,2.866,72.66,8.35,0.129,12.54,105.6119,13.64,14.73,56.76,0,110.5,13.32,14.44,34.7
"2009-06-16 01:15:00",979655,2.746,68.3,6.837,0.194,12.49,105.6119,13.64,14.73,58.08,0,110.5,13.32,14.44,30.3
"2009-06-16 01:15:30",979656,3.169,71.99,3.497,0.214,12.67,105.6119,13.64,14.74,59.24,0,110.5,13.32,14.44,34.0
"2009-06-16 01:16:00",979657,3.937,84.2,9.58,1.394,15.13,105.6119,13.64,14.89,59.29,0,110.5,13.28,14.44,46.2
"2009-06-16 01:16:30",979658,3.43,88.4,9.46,1.313,14.42,105.6119,13.64,14.75,58.7,0,110.5,13.28,14.44,50.4
"2009-06-16 01:17:00",979659,4.08,94.5,6.913,1.446,15,105.6119,13.64,14.93,58.53,0,110.5,13.28,14.44,56.5
"2009-06-16 01:17:30",979660,3.41,84.6,11.05,1.525,14.17,105.6119,13.64,14.84,58.09,0,110.5,13.28,14.44,46.6
"2009-06-16 01:18:00",979661,2.69,65.48,2.649,0.148,11.86,105.6105,13.64,14.69,57.81,0,110.5,13.31,14.43,27.5
"2009-06-16 01:18:30",979662,2.509,59.33,10.38,0.202,11.69,105.6018,13.61,14.69,58.34,0,110.5,13.31,14.41,21.3
"2009-06-16 01:19:00",979663,2.342,57.82,9.71,0.266,11.89,105.5984,13.6,14.68,59.01,0,110.5,13.31,14.40,19.8
"2009-06-16 01:19:30",979664,2.158,67.84,11.66,0.107,12.17,105.586,13.57,14.67,59.58,0,110.5,13.31,14.37,29.8
"2009-06-16 01:20:00",979665,2.639,72.96,13.83,1.367,14.49,105.5784,13.55,14.82,58.84,0,110.5,13.27,14.35,35.0
"2009-06-16 01:20:30",979666,3.493,74.48,7.513,1.003,13.66,105.5781,13.55,14.68,57.64,0,110.5,13.27,14.35,36.5
"2009-06-16 01:21:00",979667,3.986,76.78,5.639,0.75,14.02,105.5781,13.55,14.74,57.32,0,110.5,13.28,14.35,38.8
"2009-06-16 01:21:30",979668,4.098,78.43,1.434,0.157,13.31,105.5778,13.55,14.62,56.27,0,110.5,13.31,14.35,40.4
"2009-06-16 01:22:00",979669,4.109,78.11,1.336,0.091,13.28,105.5699,13.53,14.62,55.9,0,110.5,13.32,14.33,40.1
"2009-06-16 01:22:30",979670,3.831,79.88,1.192,0.116,13.71,105.5499,13.48,14.59,55.87,0,110.5,13.32,14.28,41.9
"2009-06-16 01:23:00",979671,4.135,82.1,1.358,0.176,13.8,105.5443,13.47,14.57,55.48,0,110.5,13.32,14.26,44.1
"2009-06-16 01:23:30",979672,4.482,84.3,1.198,0.162,13.69,105.5443,13.47,14.57,55.02,0,110.5,13.32,14.26,46.3
"2009-06-16 01:24:00",979673,4.629,89.5,1.178,0.049,13.93,105.5443,13.47,14.56,54.4,0,110.5,13.32,14.26,51.5
"2009-06-16 01:24:30",979674,4.026,94.8,2.127,0.26,13.94,105.5443,13.47,14.56,54.46,0,110.5,13.32,14.26,56.8
"2009-06-16 01:25:00",979675,3.419,89.9,9.82,0.382,13.44,105.544,13.47,14.52,55.32,0,110.5,13.32,14.26,51.9
"2009-06-16 01:25:30",979676,4.059,86.4,9.93,1.39,15.51,105.5415,13.46,14.7,56.87,0,110.5,13.29,14.26,48.4
"2009-06-16 01:26:00",979677,4.655,92.1,6.576,1.392,16.74,105.5364,13.45,14.77,56.16,0,110.5,13.29,14.24,54.1
"2009-06-16 01:26:30",979678,3.152,83.8,5.057,0.763,14.43,105.5339,13.44,14.64,55.41,0,110.5,13.29,14.24,45.8
"2009-06-16 01:27:00",979679,3.899,88.7,6.353,1.12,13.99,105.5313,13.43,14.5,54.94,0,110.5,13.28,14.23,50.7
"2009-06-16 01:27:30",979680,4.852,90.5,5.899,1.39,15.73,105.5305,13.43,14.71,54.72,0,110.5,13.28,14.23,52.5
"2009-06-16 01:28:00",979681,4.176,91.9,9.34,1.186,14.43,105.5282,13.42,14.68,54.43,0,110.5,13.28,14.22,53.9
"2009-06-16 01:28:30",979682,3.366,90.1,2.668,0.166,12.04,105.5282,13.42,14.49,54.01,0,110.5,13.32,14.22,52.1
"2009-06-16 01:29:00",979683,3.116,85.5,1.422,0.197,11.62,105.5294,13.43,14.49,54.23,0,110.5,13.32,14.23,47.5
"2009-06-16 01:29:30",979684,2.783,81,5.16,0.266,11.76,105.5291,13.43,14.48,54.2,0,110.5,13.32,14.23,43.0
"2009-06-16 01:30:00",979685,2.249,72.85,4.46,0.372,12.05,105.5314,13.43,14.48,55.98,0,110.5,13.32,14.23,34.8
"2009-06-16 01:30:30",979686,1.477,70.6,9.14,0.277,12.46,105.5304,13.43,14.49,56.85,0,110.5,13.32,14.23,32.6
"2009-06-16 01:31:00",979687,2.011,64.68,9,0.405,12.88,105.5258,13.42,14.49,56.95,0,110.5,13.32,14.22,26.7
"2009-06-16 01:31:30",979688,2.542,72.73,2.559,0.163,13.43,105.5171,13.4,14.48,55.73,0,110.5,13.33,14.19,34.7
"2009-06-16 01:32:00",979689,2.527,78.61,4.967,0.935,13.87,105.5148,13.39,14.52,55.01,0,110.5,13.29,14.19,40.6
"2009-06-16 01:32:30",979690,3.512,85.5,8.26,1.325,16.26,105.5152,13.39,14.71,54.98,0,110.5,13.29,14.19,47.5
"2009-06-16 01:33:00",979691,3.118,83.2,7.305,1.153,15.13,105.5158,13.39,14.63,55.07,0,110.5,13.29,14.19,45.2
"2009-06-16 01:33:30",979692,2.488,70.57,2.151,0.089,12.79,105.5185,13.4,14.46,55.27,0,110.5,13.33,14.20,32.6
"2009-06-16 01:34:00",979693,3.526,70.32,7.257,1.431,14.84,105.5173,13.4,14.56,55.62,0,110.5,13.29,14.20,32.3
"2009-06-16 01:34:30",979694,4.276,72.06,7.38,1.33,15.45,105.5203,13.4,14.7,55.97,0,110.5,13.29,14.20,34.1
"2009-06-16 01:35:00",979695,3.695,63.81,9.93,1.371,14.08,105.5137,13.39,14.5,55.97,0,110.5,13.29,14.19,25.8
"2009-06-16 01:35:30",979696,2.616,59.57,3.058,0.092,12.11,105.4968,13.34,14.44,55.87,0,110.5,13.32,14.14,21.6
"2009-06-16 01:36:00",979697,2.383,63.78,3.669,0.122,12.07,105.4948,13.34,14.43,55.97,0,110.5,13.33,14.14,25.8
"2009-06-16 01:36:30",979698,2.823,73.86,3.822,0.148,12.53,105.4969,13.34,14.42,55.94,0,110.5,13.33,14.14,35.9
"2009-06-16 01:37:00",979699,2.955,81,3.724,0.172,12.81,105.5037,13.36,14.4,55.12,0,110.5,13.33,14.16,43.0
"2009-06-16 01:37:30",979700,3.445,84.6,2.808,0.15,13.25,105.4953,13.34,14.37,54.59,0,110.5,13.33,14.14,46.6
"2009-06-16 01:38:00",979701,3.99,83.7,5.455,1.007,13.77,105.4743,13.29,14.38,54.23,0,110.5,13.29,14.09,45.7
"2009-06-16 01:38:30",979702,5.296,93.1,7.798,1.375,16.03,105.477,13.29,14.53,53.99,0,110.5,13.29,14.09,55.1
"2009-06-16 01:39:00",979703,5.896,93.9,6.947,1.356,15.85,105.4779,13.3,14.45,53.37,0,110.5,13.29,14.09,55.9
"2009-06-16 01:39:30",979704,5.132,92.9,7.806,1.195,15.53,105.4712,13.28,14.49,53.5,0,110.5,13.29,14.08,54.9
"2009-06-16 01:40:00",979705,4.276,92.6,3.417,0.844,13.51,105.454,13.23,14.3,52.61,0,110.5,13.29,14.03,54.6
"2009-06-16 01:40:30",979706,4.106,89.4,2.625,0.113,13.29,105.4447,13.21,14.3,52.09,0,110.5,13.33,14.01,51.4
"2009-06-16 01:41:00",979707,4.122,92.2,5.245,0.761,14.4,105.4447,13.21,14.44,51.98,0,110.5,13.29,14.01,54.2
"2009-06-16 01:41:30",979708,4.372,95,6.65,1.244,15,105.4447,13.21,14.29,51.9,0,110.5,13.29,14.01,57.0
"2009-06-16 01:42:00",979709,4.709,95.9,6.326,1.431,16.43,105.4447,13.21,14.46,52.19,0,110.4,13.29,14.01,57.9
"2009-06-16 01:42:30",979710,4.03,95.2,4.695,1.201,14.08,105.4447,13.21,14.24,51.72,0,110.4,13.29,14.01,57.2
"2009-06-16 01:43:00",979711,3.4,93.4,1.383,0.113,12.98,105.4447,13.21,14.23,51.45,0,110.4,13.33,14.01,55.4
"2009-06-16 01:43:30",979712,3.482,93.9,0.814,0.147,13.21,105.4447,13.21,14.23,51.23,0,110.4,13.33,14.01,55.9
"2009-06-16 01:44:00",979713,3.683,93.2,0.846,0.064,13.49,105.4447,13.21,14.22,50.92,0,110.4,13.33,14.01,55.2
"2009-06-16 01:44:30",979714,4.058,96.3,1.724,0.077,13.56,105.4447,13.21,14.22,50.71,0,110.4,13.33,14.01,58.3
"2009-06-16 01:45:00",979715,4.237,97.1,2.858,0.115,13.92,105.4447,13.21,14.23,50.74,0,110.4,13.33,14.01,59.1
"2009-06-16 01:45:30",979716,5.203,104.7,7.172,1.276,16.14,105.4447,13.21,14.41,51.33,0,110.4,13.3,14.01,66.7
"2009-06-16 01:46:00",979717,4.633,101.9,4.053,0.942,14.3,105.4447,13.21,14.24,51.34,0,110.4,13.3,14.01,63.9
"2009-06-16 01:46:30",979718,5.122,106.3,7.601,1.326,15.64,105.445,13.21,14.33,51.5,0,110.4,13.3,14.01,68.3
"2009-06-16 01:47:00",979719,5.222,106,6.653,1.339,15.95,105.4526,13.23,14.39,51.63,0,110.4,13.3,14.03,68.0
"2009-06-16 01:47:30",979720,3.833,100.4,0.529,0.076,13.89,105.4636,13.26,14.35,51.18,0,110.4,13.34,14.06,62.4
"2009-06-16 01:48:00",979721,4.866,108.1,7.274,1.483,16.16,105.4701,13.28,14.3,50.98,0,110.4,13.3,14.07,70.1
"2009-06-16 01:48:30",979722,3.425,99.8,4.092,0.714,14.24,105.476,13.29,14.44,50.75,0,110.4,13.3,14.09,61.8
"2009-06-16 01:49:00",979723,3.692,101.2,5.728,1.171,14.32,105.4782,13.3,14.27,50.36,0,110.4,13.3,14.10,63.2